Weather History for Canton, GA

Change the Weather History Date:

Tuesday, September 17, 2013

  Actual Average (KGVL) Record (KGVL)
Temperature  
Mean Temperature 70 °F 71 °F  
Max Temperature 77 °F 80 °F 97 °F (1931)
Min Temperature 64 °F 63 °F 50 °F (1940)
Degree Days  
Heating Degree Days 0 0  
Month to date heating degree days 0  
Since 1 July heating degree days 0  
Cooling Degree Days 6 7  
Month to date cooling degree days 154  
Year to date cooling degree days 1480  
Growing Degree Days 20 (Base 50)    
Moisture  
Dew Point 54 °F    
Average Humidity 58    
Maximum Humidity 83    
Minimum Humidity 39    
Precipitation  
Precipitation 0.00 in 0.16 in 2.94 in (1962)
Month to date precipitation 2.64  
Year to date precipitation 38.89  
Sea Level Pressure  
Sea Level Pressure 30.21 in    
Wind  
Wind Speed 5 mph (ENE)    
Max Wind Speed 15 mph    
Max Gust Speed 21 mph    
Visibility 10 miles    
Events      
T = Trace of Precipitation, MM = Missing Value Source: NWS Daily Summary

Daily Weather History Graph

Daily Weather History Graph

Search for Another Location

Airport:

Trip Planner

Search our weather history database for the weather conditions in past years. The results will help you decide how hot, cold, wet, or windy it might be!

Date:

Astronomy

Sep. 17, 2013 Rise Set
Actual Time 7:22 AM EDT 7:41 PM EDT
Civil Twilight 6:57 AM EDT 8:06 PM EDT
Nautical Twilight 6:27 AM EDT 8:35 PM EDT
Astronomical Twilight 5:57 AM EDT 9:05 PM EDT
Moon 6:25 PM EDT (9/17) 5:19 AM EDT (9/17)
Length of Visible Light 13h 08m
Length of Day
12h 18m
Waxing Gibbous, 96% of the Moon is Illuminated
Sep 17
Waxing Gibbous
Sep 19
Full
Sep 26
Last Quarter
Oct 4
New
Oct 11
First Quarter

Hourly Weather History & Observations

Time (EDT) Temp. Dew Point Humidity Pressure Visibility Wind Dir Wind Speed Gust Speed Precip Events Conditions
12:15 AM 64.4 °F 59.0 °F 83% 30.16 in 10.0 mi Calm Calm - N/A   Clear
12:35 AM 64.4 °F 59.0 °F 83% 30.16 in 10.0 mi Calm Calm - N/A   Clear
12:55 AM 64.4 °F 59.0 °F 83% 30.16 in 10.0 mi Calm Calm - N/A   Clear
1:15 AM 64.4 °F 59.0 °F 83% 30.16 in 10.0 mi Calm Calm - N/A   Clear
1:35 AM 64.4 °F 59.0 °F 83% 30.16 in 10.0 mi Calm Calm - N/A   Clear
1:55 AM 64.4 °F 59.0 °F 83% 30.16 in 10.0 mi Calm Calm - N/A   Clear
2:15 AM 64.4 °F 59.0 °F 83% 30.16 in 10.0 mi NE 3.5 mph - N/A   Clear
2:35 AM 68.0 °F 55.4 °F 64% 30.16 in 10.0 mi ENE 4.6 mph - N/A   Clear
2:55 AM 68.0 °F 55.4 °F 64% 30.16 in 10.0 mi ENE 3.5 mph - N/A   Scattered Clouds
3:15 AM 68.0 °F 57.2 °F 68% 30.16 in 10.0 mi ENE 4.6 mph - N/A   Clear
3:35 AM 68.0 °F 57.2 °F 68% 30.16 in 10.0 mi East 3.5 mph - N/A   Scattered Clouds
3:55 AM 68.0 °F 57.2 °F 68% 30.16 in 10.0 mi ENE 4.6 mph - N/A   Scattered Clouds
4:15 AM 68.0 °F 57.2 °F 68% 30.16 in 10.0 mi ENE 3.5 mph - N/A   Clear
4:35 AM 68.0 °F 57.2 °F 68% 30.16 in 10.0 mi ENE 5.8 mph - N/A   Clear
4:55 AM 69.8 °F 55.4 °F 60% 30.16 in 10.0 mi ENE 4.6 mph - N/A   Scattered Clouds
5:15 AM 69.8 °F 57.2 °F 64% 30.17 in 10.0 mi ENE 3.5 mph - N/A   Scattered Clouds
5:35 AM 69.8 °F 55.4 °F 60% 30.17 in 10.0 mi ENE 4.6 mph - N/A   Clear
5:55 AM 69.8 °F 55.4 °F 60% 30.17 in 10.0 mi ENE 5.8 mph - N/A   Clear
6:15 AM 68.0 °F 55.4 °F 64% 30.18 in 10.0 mi ENE 5.8 mph - N/A   Clear
6:35 AM 68.0 °F 55.4 °F 64% 30.19 in 10.0 mi ENE 5.8 mph - N/A   Clear
6:55 AM 68.0 °F 55.4 °F 64% 30.19 in 10.0 mi ENE 8.1 mph - N/A   Clear
7:15 AM 68.0 °F 55.4 °F 64% 30.20 in 10.0 mi ENE 4.6 mph - N/A   Clear
7:35 AM 68.0 °F 55.4 °F 64% 30.21 in 10.0 mi ENE 5.8 mph - N/A   Clear
7:55 AM 68.0 °F 55.4 °F 64% 30.21 in 10.0 mi ENE 5.8 mph - N/A   Clear
8:15 AM 68.0 °F 55.4 °F 64% 30.23 in 10.0 mi East 6.9 mph - N/A   Mostly Cloudy
8:35 AM 68.0 °F 55.4 °F 64% 30.23 in 10.0 mi ENE 8.1 mph - N/A   Overcast
8:55 AM 68.0 °F 53.6 °F 60% 30.23 in 10.0 mi ENE 8.1 mph 17.3 mph N/A   Scattered Clouds
9:15 AM 68.0 °F 53.6 °F 60% 30.25 in 10.0 mi ENE 9.2 mph - N/A   Clear
9:35 AM 69.8 °F 53.6 °F 56% 30.25 in 10.0 mi ENE 9.2 mph 18.4 mph N/A   Scattered Clouds
9:55 AM 69.8 °F 53.6 °F 56% 30.26 in 10.0 mi East 9.2 mph - N/A   Clear
10:15 AM 71.6 °F 53.6 °F 53% 30.26 in 10.0 mi East 9.2 mph 17.3 mph N/A   Scattered Clouds
10:35 AM 71.6 °F 53.6 °F 53% 30.27 in 10.0 mi ENE 9.2 mph 17.3 mph N/A   Overcast
10:55 AM 71.6 °F 53.6 °F 53% 30.27 in 10.0 mi ENE 8.1 mph 20.7 mph N/A   Overcast
11:15 AM 71.6 °F 53.6 °F 53% 30.27 in 10.0 mi East 10.4 mph 16.1 mph N/A   Overcast
11:35 AM 71.6 °F 53.6 °F 53% 30.28 in 10.0 mi East 9.2 mph - N/A   Overcast
11:55 AM 71.6 °F 51.8 °F 50% 30.28 in 10.0 mi ENE 8.1 mph 18.4 mph N/A   Overcast
12:15 PM 71.6 °F 51.8 °F 50% 30.28 in 10.0 mi East 10.4 mph 17.3 mph N/A   Mostly Cloudy
12:35 PM 73.4 °F 51.8 °F 47% 30.28 in 10.0 mi East 10.4 mph - N/A   Mostly Cloudy
12:55 PM 73.4 °F 50.0 °F 44% 30.27 in 10.0 mi ENE 13.8 mph 19.6 mph N/A   Scattered Clouds
1:15 PM 73.4 °F 50.0 °F 44% 30.26 in 10.0 mi East 10.4 mph 18.4 mph N/A   Scattered Clouds
1:35 PM 75.2 °F 50.0 °F 41% 30.26 in 10.0 mi ESE 15.0 mph 18.4 mph N/A   Scattered Clouds
1:55 PM 75.2 °F 50.0 °F 41% 30.25 in 10.0 mi East 6.9 mph 17.3 mph N/A   Clear
2:15 PM 77.0 °F 50.0 °F 39% 30.24 in 10.0 mi ENE 12.7 mph 17.3 mph N/A   Clear
2:35 PM 77.0 °F 50.0 °F 39% 30.23 in 10.0 mi ENE 15.0 mph - N/A   Clear
2:55 PM 77.0 °F 50.0 °F 39% 30.22 in 10.0 mi East 8.1 mph 19.6 mph N/A   Clear
3:15 PM 77.0 °F 50.0 °F 39% 30.21 in 10.0 mi ENE 11.5 mph 20.7 mph N/A   Clear
3:35 PM 77.0 °F 50.0 °F 39% 30.21 in 10.0 mi East 8.1 mph 17.3 mph N/A   Clear
3:55 PM 77.0 °F 50.0 °F 39% 30.21 in 10.0 mi East 8.1 mph 18.4 mph N/A   Scattered Clouds
4:15 PM 77.0 °F 51.8 °F 41% 30.20 in 10.0 mi ENE 9.2 mph 16.1 mph N/A   Mostly Cloudy
4:35 PM 77.0 °F 50.0 °F 39% 30.20 in 10.0 mi ENE 5.8 mph 16.1 mph N/A   Mostly Cloudy
4:55 PM 77.0 °F 51.8 °F 41% 30.20 in 10.0 mi East 9.2 mph 16.1 mph N/A   Scattered Clouds
5:15 PM 73.4 °F 51.8 °F 47% 30.20 in 10.0 mi ENE 8.1 mph 17.3 mph N/A   Scattered Clouds
5:35 PM 73.4 °F 51.8 °F 47% 30.19 in 10.0 mi East 8.1 mph - N/A   Scattered Clouds
5:55 PM 73.4 °F 51.8 °F 47% 30.20 in 10.0 mi East 8.1 mph - N/A   Scattered Clouds
6:15 PM 73.4 °F 51.8 °F 47% 30.20 in 10.0 mi East 10.4 mph - N/A   Scattered Clouds
6:35 PM 71.6 °F 51.8 °F 50% 30.20 in 10.0 mi East 6.9 mph - N/A   Mostly Cloudy
6:55 PM 71.6 °F 51.8 °F 50% 30.20 in 10.0 mi ENE 8.1 mph - N/A   Scattered Clouds
7:15 PM 71.6 °F 53.6 °F 53% 30.20 in 10.0 mi East 4.6 mph - N/A   Scattered Clouds
7:35 PM 69.8 °F 53.6 °F 56% 30.21 in 10.0 mi ENE 3.5 mph - N/A   Scattered Clouds
7:55 PM 69.8 °F 53.6 °F 56% 30.21 in 10.0 mi ENE 4.6 mph - N/A   Scattered Clouds
8:15 PM 68.0 °F 53.6 °F 60% 30.21 in 10.0 mi East 5.8 mph - N/A   Mostly Cloudy
8:35 PM 68.0 °F 51.8 °F 56% 30.21 in 10.0 mi East 4.6 mph - N/A   Mostly Cloudy
8:55 PM 68.0 °F 51.8 °F 56% 30.22 in 10.0 mi ENE 3.5 mph - N/A   Mostly Cloudy
9:15 PM 68.0 °F 53.6 °F 60% 30.23 in 10.0 mi ENE 4.6 mph - N/A   Mostly Cloudy
9:35 PM 68.0 °F 53.6 °F 60% 30.23 in 10.0 mi ENE 5.8 mph - N/A   Overcast
9:55 PM 68.0 °F 53.6 °F 60% 30.24 in 10.0 mi East 4.6 mph - N/A   Mostly Cloudy
10:15 PM 66.2 °F 53.6 °F 64% 30.24 in 10.0 mi East 4.6 mph - N/A   Scattered Clouds
10:35 PM 66.2 °F 53.6 °F 64% 30.25 in 10.0 mi ENE 4.6 mph - N/A   Scattered Clouds
10:55 PM 64.4 °F 53.6 °F 68% 30.25 in 10.0 mi ENE 4.6 mph - N/A   Scattered Clouds
11:15 PM 64.4 °F 53.6 °F 68% 30.25 in 10.0 mi East 3.5 mph - N/A   Scattered Clouds
11:35 PM 64.4 °F 53.6 °F 68% 30.25 in 10.0 mi East 4.6 mph - N/A   Overcast
11:55 PM 64.4 °F 53.6 °F 68% 30.25 in 10.0 mi East 3.5 mph - N/A   Overcast